Location: Carrières
(48.9495°N, 2.0407°E)
Time: 05:27:30
(UTC+00:00)

Cosmos 2227 Rocket - Pass Details

Date: 28 January 2023
Orbit: 839 x 844 km, 71.0° (Epoch: 29 March)

Event Time Altitude Azimuth Distance (km) Brightness Sun altitude
Rises 18:05:33 0° 324° (NW) 3,414 5.7 -13.7°
Reaches altitude 10° 18:08:18 10° 313° (NW) 2,474 5.1 -14.1°
Maximum altitude 18:13:02 28° 256° (WSW) 1,540 4.4 -14.9°
Drops below altitude 10° 18:17:44 10° 200° (SSW) 2,457 5.0 -15.7°
Sets 18:20:28 0° 189° (S) 3,386 5.6 -16.1°
